Weather History for Frankfort, KY

Change the Weather History Date:

Thursday, March 28, 2013

  Actual Average Record
Temperature  
Mean Temperature 37 °F 49 °F  
Max Temperature 50 °F 61 °F 84 °F (1910)
Min Temperature 23 °F 37 °F 9 °F (1947)
Degree Days  
Heating Degree Days 28 16  
Month to date heating degree days 758 581  
Since 1 July heating degree days 4296 4220  
Cooling Degree Days 0 0  
Month to date cooling degree days 0 0  
Year to date cooling degree days 0 0  
Moisture  
Dew Point 24 °F    
Average Humidity 64    
Maximum Humidity 92    
Minimum Humidity 36    
Precipitation  
Precipitation 0.00 in 0.15 in 1.80 in (1921)
Month to date precipitation 4.09 3.89  
Year to date precipitation 10.73 10.44  
Sea Level Pressure  
Sea Level Pressure 30.34 in    
Wind  
Wind Speed 2 mph (NW)    
Max Wind Speed 12 mph    
Max Gust Speed 16 mph    
Visibility 10 miles    
Events      
T = Trace of Precipitation, MM = Missing Value Source: NWS Daily Summary

Daily Weather History Graph

Daily Weather History Graph

Search for Another Location

Airport:

Trip Planner

Search our weather history database for the weather conditions in past years. The results will help you decide how hot, cold, wet, or windy it might be!

Date:

Astronomy

Mar. 28, 2013 Rise Set
Actual Time 7:30 AM EDT 7:59 PM EDT
Civil Twilight 7:03 AM EDT 8:25 PM EDT
Nautical Twilight 6:32 AM EDT 8:56 PM EDT
Astronomical Twilight 6:01 AM EDT 9:28 PM EDT
Moon 9:48 PM EDT 7:59 AM EDT
Length of Visible Light 13h 21m
Length of Day
12h 28m
Full, 98% of the Moon is Illuminated
Mar 28
Full
Apr 3
Last Quarter
Apr 10
New
Apr 18
First Quarter
Apr 25
Full

Hourly Weather History & Observations

Time (EDT) Temp. Windchill Dew Point Humidity Pressure Visibility Wind Dir Wind Speed Gust Speed Precip Events Conditions
12:53 AM 28.9 °F 25.2 °F 25.0 °F 85% 30.32 in 10.0 mi NW 3.5 mph - N/A   Clear
1:53 AM 28.0 °F - 25.0 °F 88% 30.32 in 10.0 mi Calm Calm - N/A   Clear
2:53 AM 27.0 °F - 24.1 °F 89% 30.32 in 10.0 mi Calm Calm - N/A   Clear
3:53 AM 25.0 °F - 23.0 °F 92% 30.32 in 10.0 mi Calm Calm - N/A   Clear
4:53 AM 24.1 °F 19.7 °F 23.0 °F 96% 30.32 in 9.0 mi NNW 3.5 mph - N/A   Clear
5:53 AM 24.1 °F - 21.0 °F 88% 30.33 in 10.0 mi Calm Calm - N/A   Clear
6:53 AM 25.0 °F - 23.0 °F 92% 30.34 in 9.0 mi Calm Calm - N/A   Overcast
7:53 AM 25.0 °F - 21.9 °F 88% 30.35 in 10.0 mi Calm Calm - N/A   Partly Cloudy
8:53 AM 28.9 °F - 26.1 °F 89% 30.37 in 10.0 mi Calm Calm - N/A   Clear
9:53 AM 36.0 °F 30.3 °F 25.0 °F 64% 30.38 in 10.0 mi NNW 6.9 mph - N/A   Clear
10:53 AM 41.0 °F 38.0 °F 24.1 °F 51% 30.38 in 10.0 mi NNE 4.6 mph - N/A   Partly Cloudy
11:53 AM 42.1 °F 37.7 °F 23.0 °F 47% 30.39 in 10.0 mi SW 6.9 mph - N/A   Mostly Cloudy
12:53 PM 44.1 °F - 23.0 °F 43% 30.38 in 10.0 mi Calm Calm - N/A   Partly Cloudy
1:53 PM 46.0 °F 43.9 °F 21.9 °F 39% 30.37 in 10.0 mi Variable 4.6 mph - N/A   Partly Cloudy
2:53 PM 46.0 °F 44.8 °F 24.1 °F 42% 30.35 in 10.0 mi Variable 3.5 mph - N/A   Mostly Cloudy
3:53 PM 48.0 °F - 24.1 °F 39% 30.33 in 10.0 mi Variable 6.9 mph - N/A   Clear
4:53 PM 48.9 °F - 24.1 °F 38% 30.31 in 10.0 mi Calm Calm - N/A   Clear
5:53 PM 48.9 °F - 23.0 °F 36% 30.31 in 10.0 mi Variable 5.8 mph - N/A   Clear
6:53 PM 48.0 °F - 24.1 °F 39% 30.31 in 10.0 mi West 6.9 mph - N/A   Clear
7:53 PM 45.0 °F - 24.1 °F 44% 30.31 in 10.0 mi Calm Calm - N/A   Clear
8:53 PM 39.9 °F - 27.0 °F 60% 30.32 in 10.0 mi Calm Calm - N/A   Clear
9:53 PM 36.0 °F - 26.1 °F 67% 30.32 in 10.0 mi Calm Calm - N/A   Clear
10:53 PM 33.1 °F - 26.1 °F 75% 30.33 in 10.0 mi Calm Calm - N/A   Clear
11:53 PM 30.9 °F - 26.1 °F 82% 30.33 in 10.0 mi Calm Calm - N/A   Clear